Time,TemperatureF,DewpointF,PressureIn,WindDirection,WindDirectionDegrees,WindSpeedMPH,WindSpeedGustMPH,Humidity,HourlyPrecipIn,Conditions,Clouds,dailyrainin,SoftwareType,DateUTC
2013-06-22 00:29:00,61.6,59.6,30.22,WNW,301,0.0,0.0,93,0.00,,,0.00,Wunderground v.1.15,2013-06-22 04:29:00,
2013-06-22 00:59:00,61.6,59.9,30.22,WNW,301,0.0,0.0,94,0.00,,,0.00,Wunderground v.1.15,2013-06-22 04:59:00,
2013-06-22 01:29:00,60.5,58.8,30.23,WNW,301,0.0,0.0,94,0.00,,,0.00,Wunderground v.1.15,2013-06-22 05:29:00,
2013-06-22 01:59:00,60.5,59.1,30.22,WNW,301,0.0,0.0,95,0.00,,,0.00,Wunderground v.1.15,2013-06-22 05:59:00,
2013-06-22 02:29:00,59.8,58.4,30.22,WNW,301,0.0,0.0,95,0.00,,,0.00,Wunderground v.1.15,2013-06-22 06:29:00,
2013-06-22 02:59:00,59.3,58.2,30.21,WNW,301,0.0,0.0,96,0.00,,,0.00,Wunderground v.1.15,2013-06-22 06:59:00,
2013-06-22 03:29:00,58.9,57.8,30.20,WNW,301,0.0,0.0,96,0.00,,,0.00,Wunderground v.1.15,2013-06-22 07:29:00,
2013-06-22 03:59:00,58.6,57.8,30.20,WNW,301,0.0,0.0,97,0.00,,,0.00,Wunderground v.1.15,2013-06-22 07:59:00,
2013-06-22 04:29:00,58.3,57.5,30.20,WNW,301,0.0,0.0,97,0.00,,,0.00,Wunderground v.1.15,2013-06-22 08:29:00,
2013-06-22 04:59:00,58.3,57.5,30.19,WNW,301,0.0,0.0,97,0.00,,,0.00,Wunderground v.1.15,2013-06-22 08:59:00,
2013-06-22 05:29:00,57.6,56.8,30.19,WNW,301,0.0,0.0,97,0.00,,,0.00,Wunderground v.1.15,2013-06-22 09:29:00,
2013-06-22 05:59:00,57.6,57.0,30.19,WNW,301,0.0,0.0,98,0.00,,,0.00,Wunderground v.1.15,2013-06-22 09:59:00,
2013-06-22 06:29:00,57.8,57.2,30.20,WNW,301,0.0,0.0,98,0.00,,,0.00,Wunderground v.1.15,2013-06-22 10:29:00,
2013-06-22 06:59:00,57.8,57.2,30.20,WNW,301,0.0,0.0,98,0.00,,,0.00,Wunderground v.1.15,2013-06-22 10:59:00,
2013-06-22 07:29:00,58.9,58.1,30.21,WNW,301,0.0,0.0,97,0.00,,,0.00,Wunderground v.1.15,2013-06-22 11:29:00,
2013-06-22 07:59:00,60.9,59.2,30.22,SE,134,0.0,0.0,94,0.00,,,0.00,Wunderground v.1.15,2013-06-22 11:59:00,
2013-06-22 08:29:00,67.3,60.2,30.23,NW,322,0.0,0.0,78,0.00,,,0.00,Wunderground v.1.15,2013-06-22 12:29:00,
2013-06-22 08:59:00,67.3,59.5,30.25,NNE,16,0.0,0.0,76,0.00,,,0.00,Wunderground v.1.15,2013-06-22 12:59:00,
2013-06-22 09:29:00,73.9,65.1,30.25,WSW,257,0.0,0.0,74,0.00,,,0.00,Wunderground v.1.15,2013-06-22 13:29:00,
2013-06-22 09:59:00,73.9,64.3,30.25,West,271,0.0,0.0,72,0.00,,,0.00,Wunderground v.1.15,2013-06-22 13:59:00,
2013-06-22 10:29:00,77.6,66.2,30.24,WSW,254,1.0,1.0,68,0.00,,,0.00,Wunderground v.1.15,2013-06-22 14:29:00,
2013-06-22 10:59:00,78.6,65.8,30.24,West,278,1.0,1.0,65,0.00,,,0.00,Wunderground v.1.15,2013-06-22 14:59:00,
2013-06-22 11:29:00,82.2,67.9,30.24,NW,306,1.0,1.0,62,0.00,,,0.00,Wunderground v.1.15,2013-06-22 15:29:00,
2013-06-22 11:59:00,84.0,68.6,30.24,West,280,1.0,1.0,60,0.00,,,0.00,Wunderground v.1.15,2013-06-22 15:59:00,
2013-06-22 12:29:00,83.8,68.4,30.24,NNW,329,1.0,1.0,60,0.00,,,0.00,Wunderground v.1.15,2013-06-22 16:29:00,
2013-06-22 12:59:00,84.1,66.7,30.23,SE,144,1.0,1.0,56,0.00,,,0.00,Wunderground v.1.15,2013-06-22 16:59:00,
2013-06-22 13:29:00,85.5,68.0,30.21,North,11,1.0,1.0,56,0.00,,,0.00,Wunderground v.1.15,2013-06-22 17:29:00,
2013-06-22 13:59:00,83.6,66.2,30.21,WNW,288,1.0,1.0,56,0.00,,,0.00,Wunderground v.1.15,2013-06-22 17:59:00,
2013-06-22 14:29:00,85.3,69.3,30.21,North,354,1.0,1.0,59,0.00,,,0.00,Wunderground v.1.15,2013-06-22 18:29:00,
2013-06-22 14:59:00,86.1,66.4,30.20,SE,131,1.0,1.0,52,0.00,,,0.00,Wunderground v.1.15,2013-06-22 18:59:00,
2013-06-22 15:29:00,86.1,68.6,30.19,SSW,193,1.0,1.0,56,0.00,,,0.00,Wunderground v.1.15,2013-06-22 19:29:00,
2013-06-22 15:59:00,86.5,68.9,30.18,WNW,301,1.0,1.0,56,0.00,,,0.00,Wunderground v.1.15,2013-06-22 19:59:00,
2013-06-22 16:29:00,86.7,67.0,30.17,NE,35,1.0,1.0,52,0.00,,,0.00,Wunderground v.1.15,2013-06-22 20:29:00,
2013-06-22 16:59:00,86.7,68.6,30.15,NW,326,1.0,1.0,55,0.00,,,0.00,Wunderground v.1.15,2013-06-22 20:59:00,
2013-06-22 17:29:00,86.7,67.5,30.14,East,99,1.0,3.0,53,0.00,,,0.00,Wunderground v.1.15,2013-06-22 21:29:00,
2013-06-22 17:59:00,86.1,66.4,30.13,SSE,167,1.0,1.0,52,0.00,,,0.00,Wunderground v.1.15,2013-06-22 21:59:00,
2013-06-22 18:29:00,84.9,66.9,30.12,NNW,337,1.0,1.0,55,0.00,,,0.00,Wunderground v.1.15,2013-06-22 22:29:00,
2013-06-22 18:59:00,83.6,67.8,30.13,SSW,199,0.0,0.0,59,0.00,,,0.00,Wunderground v.1.15,2013-06-22 22:59:00,
2013-06-22 19:29:00,82.2,69.3,30.13,South,185,0.0,0.0,65,0.00,,,0.00,Wunderground v.1.15,2013-06-22 23:29:00,
2013-06-22 19:59:00,80.7,68.7,30.13,ENE,62,0.0,0.0,67,0.00,,,0.00,Wunderground v.1.15,2013-06-22 23:59:00,
2013-06-22 20:29:00,78.8,70.2,30.12,ENE,61,0.0,0.0,75,0.00,,,0.00,Wunderground v.1.15,2013-06-23 00:29:00,
2013-06-22 20:59:00,76.1,68.0,30.13,ENE,61,0.0,0.0,76,0.00,,,0.00,Wunderground v.1.15,2013-06-23 00:59:00,
2013-06-22 21:29:00,74.7,68.8,30.13,ENE,61,0.0,0.0,82,0.00,,,0.00,Wunderground v.1.15,2013-06-23 01:29:00,
2013-06-22 21:59:00,73.0,67.2,30.14,ENE,62,0.0,0.0,82,0.00,,,0.00,Wunderground v.1.15,2013-06-23 01:59:00,
2013-06-22 22:29:00,72.1,67.7,30.15,ENE,62,0.0,0.0,86,0.00,,,0.00,Wunderground v.1.15,2013-06-23 02:29:00,
2013-06-22 22:59:00,71.3,67.6,30.15,ENE,62,0.0,0.0,88,0.00,,,0.00,Wunderground v.1.15,2013-06-23 02:59:00,
2013-06-22 23:29:00,70.1,67.0,30.15,ENE,62,0.0,0.0,90,0.00,,,0.00,Wunderground v.1.15,2013-06-23 03:29:00,
2013-06-22 23:59:00,69.6,66.9,30.15,ENE,62,0.0,0.0,91,0.00,,,0.00,Wunderground v.1.15,2013-06-23 03:59:00,